NIMIQ 5

Satellite information

Favourite Embed

Satellite Type and Status

PAYLOADIN ORBIT

Key statistics

Satellite NIMIQ 5 at a glance.

Uptime

5712

Days in orbit

Revolutions

≈ 1.0

Per day

Orbit

GEO

Geostationary Orbit

Inclination

0.0

Latest

Satellite identification and parameters

Extended collection of information and parameters for NIMIQ 5.

Object identification

Identified? True

Debris? False

Object name: NIMIQ 5

International designator: 2009-050A

Object number (NORAD): 35873

Object ID (CCSDS): 35873

Country: CANADA (CA)

Current information (Y/N): Y

RCS size: LARGE

Orbital parameters

Period: 1436.15 minutes

Inclination: 0.0212 deg

SMA: 42165.763 km

Apoapsis: 35800.543 km

Periapsis: 35774.713 km

RAAN: 86.2261 deg

Eccentricy: 0.0003063

Argument of periapsis: 324.776 deg

Mean anomaly: 54.7961 deg

Mean motion: 1.00268107 rev/day

Mean motion (dot): -0.00000255 rev/day2

B* drag term: 0.0 1/REarth

Two-line elements (TLE)

Creation date: May 8, 2025, 3:01 a.m.

Reference frame: TEME

Reference center: EARTH

Epoch: May 7, 2025, 8:50 p.m. UTC

TLE line 0: 0 NIMIQ 5

TLE line 1: 1 35873U 09050A 25127.86822635 -.00000255 00000-0 00000-0 0 9990

TLE line 2: 2 35873 0.0212 86.2261 0003063 324.7760 54.7961 1.00268107 57288

Live tracking on map

Real-time ground track for satellite NIMIQ 5.

In-orbit conjunctions

There are no conjunctions computed for NIMIQ 5, at the moment. Check back to stay up to date, as we update our databases every day.

Go to all conjunctions

Associated space launch

Russian meteorology satellite

NIMIQ 5 was lifted into orbit during the mission ‘Soyuz 2.1b/Fregat | Meteor-M 1’, on board a Soyuz 2.1b/Fregat space rocket.

The launch took place on Sept. 17, 2009, 3:55 p.m. from 31/6.

For more information about the launch, click the button.

Launch to space Soyuz 2.1b/Fregat | Meteor-M 1
Soyuz 2.1b/Fregat | Meteor-M 1

Agency: N/A

Status: Launch Successful

Launch date: Sept. 17, 2009, 3:55 p.m. UTC

Rocket: Soyuz 2.1b/Fregat

Launch pad: 31/6

Location: Baikonur Cosmodrome, Republic of Kazakhstan

...

Latest news about this satellite

There are no fresh news available about this satellite. Check back as we update our databases every day.


Newsletter sign-up

Weekly statistics, charts and insights to help you stay on top of the space industry.